KLM3CM ESGG-EHAM

Flight info

Callsign KLM3CM
Flight time N/A
Altitude 30000
Route VADIN DCT ABINO DCT ATTUS DCT MOXCI P174 KUBAT T200 BLUFA
Aircraft A20N/M-SDE2E3FGHIRWXY/LB1

Departure

Time 2026-04-30 14:13
Airport Göteborg Landvetter Airport (ESGG)

Arrival

Time N/A
Airport Amsterdam Airport Schiphol (EHAM)
Time Latitude Longitude Altitude Speed Heading
2026-04-30 13:59 57.66778 12.29311 519 ft 0 kts 116°
2026-04-30 14:05 57.66790 12.29267 519 ft 5 kts 117°
2026-04-30 14:06 57.66804 12.29223 519 ft 3 kts 134°
2026-04-30 14:06 57.66825 12.29212 519 ft 2 kts 192°
2026-04-30 14:07 57.66839 12.29219 519 ft 0 kts 199°
2026-04-30 14:09 57.66822 12.29208 519 ft 5 kts 199°
2026-04-30 14:10 57.66782 12.29153 519 ft 9 kts 242°
2026-04-30 14:10 57.66800 12.29025 519 ft 13 kts 316°
2026-04-30 14:10 57.66891 12.29045 519 ft 16 kts 24°
2026-04-30 14:10 57.67009 12.29149 519 ft 21 kts 27°
2026-04-30 14:11 57.67151 12.29285 519 ft 25 kts 26°
2026-04-30 14:11 57.67319 12.29439 519 ft 29 kts 26°
2026-04-30 14:11 57.67485 12.29585 519 ft 10 kts 24°
2026-04-30 14:11 57.67547 12.29566 519 ft 9 kts 311°
2026-04-30 14:12 57.67585 12.29436 519 ft 13 kts 294°
2026-04-30 14:12 57.67583 12.29249 519 ft 16 kts 253°
2026-04-30 14:12 57.67503 12.29092 519 ft 19 kts 206°
2026-04-30 14:12 57.67383 12.28981 518 ft 47 kts 207°
2026-04-30 14:13 57.66604 12.28269 515 ft 139 kts 206°
2026-04-30 14:13 57.65600 12.27408 783 ft 165 kts 208°
2026-04-30 14:13 57.64654 12.26347 1711 ft 157 kts 214°
2026-04-30 14:13 57.63654 12.25329 2353 ft 176 kts 211°
2026-04-30 14:14 57.62473 12.24209 2768 ft 204 kts 205°
2026-04-30 14:14 57.61052 12.23516 3122 ft 222 kts 189°
2026-04-30 14:14 57.59460 12.23198 3563 ft 239 kts 186°
2026-04-30 14:14 57.57768 12.22926 4021 ft 250 kts 186°
2026-04-30 14:15 57.55964 12.22624 4328 ft 270 kts 186°
2026-04-30 14:15 57.54050 12.22257 4901 ft 279 kts 186°
2026-04-30 14:15 57.52111 12.21870 5595 ft 281 kts 187°
2026-04-30 14:15 57.50162 12.21469 6294 ft 284 kts 187°
2026-04-30 14:16 57.48187 12.21059 6958 ft 288 kts 187°
2026-04-30 14:16 57.46203 12.20645 7579 ft 291 kts 187°
2026-04-30 14:16 57.44186 12.20207 8167 ft 294 kts 190°
2026-04-30 14:16 57.42328 12.18735 8749 ft 295 kts 221°
2026-04-30 14:17 57.40887 12.15994 9373 ft 296 kts 231°
2026-04-30 14:17 57.39542 12.13071 9996 ft 299 kts 231°
2026-04-30 14:17 57.38140 12.10123 10346 ft 312 kts 229°
2026-04-30 14:17 57.36631 12.07097 10541 ft 327 kts 228°
2026-04-30 14:18 57.35025 12.03982 10716 ft 341 kts 227°
2026-04-30 14:18 57.33916 12.01866 10841 ft 350 kts 227°
2026-04-30 14:18 57.29794 11.94105 11200 ft 376 kts 226°
2026-04-30 14:19 57.26025 11.87073 11455 ft 393 kts 226°
2026-04-30 14:19 57.24744 11.84690 11529 ft 398 kts 226°
2026-04-30 14:19 57.22108 11.79795 11742 ft 404 kts 226°
2026-04-30 14:20 57.20794 11.77359 11888 ft 406 kts 226°
2026-04-30 14:20 57.18145 11.72457 12187 ft 409 kts 226°
2026-04-30 14:20 57.14104 11.64992 12644 ft 413 kts 225°
2026-04-30 14:21 57.11972 11.61442 12872 ft 414 kts 220°
2026-04-30 14:21 57.09739 11.58078 13086 ft 416 kts 218°
2026-04-30 14:21 57.05138 11.51526 13512 ft 420 kts 217°
2026-04-30 14:22 57.02825 11.48254 13722 ft 421 kts 218°
2026-04-30 14:22 56.98215 11.41658 14132 ft 425 kts 218°
2026-04-30 14:22 56.95888 11.38298 14305 ft 426 kts 218°
2026-04-30 14:23 56.92014 11.32690 14623 ft 428 kts 218°
2026-04-30 14:23 56.86546 11.24784 15054 ft 430 kts 218°
2026-04-30 14:24 56.82632 11.19149 15462 ft 436 kts 218°
2026-04-30 14:24 56.79473 11.14615 16506 ft 437 kts 218°
2026-04-30 14:25 56.74674 11.07747 17983 ft 442 kts 218°
2026-04-30 14:25 56.70626 11.01972 19073 ft 448 kts 219°
2026-04-30 14:26 56.65673 10.94926 20253 ft 454 kts 219°
2026-04-30 14:26 56.62358 10.90223 21015 ft 459 kts 219°
2026-04-30 14:26 56.58120 10.84228 21936 ft 464 kts 219°
2026-04-30 14:27 56.55562 10.80618 22489 ft 467 kts 219°
2026-04-30 14:27 56.53024 10.77042 23028 ft 470 kts 219°
2026-04-30 14:27 56.50430 10.73394 23576 ft 474 kts 219°
2026-04-30 14:28 56.45185 10.66036 24563 ft 480 kts 219°
2026-04-30 14:28 56.42533 10.62328 25012 ft 483 kts 219°
2026-04-30 14:28 56.39878 10.58620 25473 ft 485 kts 219°
2026-04-30 14:28 56.37201 10.54890 25912 ft 487 kts 219°
2026-04-30 14:29 56.31827 10.47424 27023 ft 485 kts 219°
2026-04-30 14:29 56.26539 10.40104 28164 ft 482 kts 219°
2026-04-30 14:30 56.18559 10.29102 28450 ft 481 kts 219°
2026-04-30 14:31 56.13239 10.21799 28449 ft 481 kts 219°
2026-04-30 14:31 56.05283 10.10928 28446 ft 481 kts 219°
2026-04-30 14:32 55.97295 10.00078 28447 ft 481 kts 218°
2026-04-30 14:33 55.91774 9.93286 28447 ft 482 kts 214°
2026-04-30 14:33 55.83342 9.83632 28451 ft 482 kts 214°
2026-04-30 14:34 55.77716 9.77177 28449 ft 482 kts 214°
2026-04-30 14:34 55.72095 9.70694 28459 ft 482 kts 214°
2026-04-30 14:35 55.63696 9.61022 28466 ft 482 kts 214°
2026-04-30 14:36 55.58075 9.54579 28471 ft 482 kts 214°
2026-04-30 14:36 55.52450 9.48155 28490 ft 481 kts 214°
2026-04-30 14:37 55.46822 9.41751 28477 ft 481 kts 213°
2026-04-30 14:37 55.41190 9.35367 28476 ft 481 kts 213°
2026-04-30 14:38 55.35594 9.29043 28478 ft 481 kts 213°
2026-04-30 14:38 55.29953 9.22691 28475 ft 482 kts 213°
2026-04-30 14:39 55.24311 9.16359 28475 ft 482 kts 213°
2026-04-30 14:39 55.18700 9.10081 28484 ft 482 kts 213°
2026-04-30 14:40 55.10219 9.00635 28475 ft 482 kts 213°
2026-04-30 14:40 55.04556 8.94357 28477 ft 482 kts 213°
2026-04-30 14:41 54.98893 8.88097 28474 ft 482 kts 213°
2026-04-30 14:41 54.93264 8.81896 28483 ft 482 kts 213°
2026-04-30 14:42 54.87643 8.75531 28483 ft 482 kts 215°
2026-04-30 14:42 54.82189 8.68761 28491 ft 482 kts 217°
2026-04-30 14:43 54.76761 8.61915 28485 ft 482 kts 216°
2026-04-30 14:43 54.71321 8.55129 28484 ft 482 kts 216°
2026-04-30 14:44 54.65901 8.48438 28481 ft 482 kts 216°
2026-04-30 14:44 54.60436 8.41731 28491 ft 482 kts 216°
2026-04-30 14:45 54.54968 8.35042 28488 ft 482 kts 216°
2026-04-30 14:45 54.49533 8.28414 28487 ft 482 kts 215°
2026-04-30 14:46 54.44062 8.21762 28482 ft 482 kts 215°
2026-04-30 14:46 54.38593 8.15135 28482 ft 482 kts 215°
2026-04-30 14:47 54.33114 8.08519 28477 ft 482 kts 215°
2026-04-30 14:47 54.27662 8.01956 28484 ft 482 kts 215°
2026-04-30 14:48 54.22173 7.95370 28470 ft 482 kts 214°
2026-04-30 14:48 54.16684 7.88807 28468 ft 482 kts 214°
2026-04-30 14:49 54.11191 7.82260 28467 ft 482 kts 214°
2026-04-30 14:49 54.05701 7.75738 28468 ft 482 kts 214°
2026-04-30 14:50 53.97486 7.66020 28461 ft 482 kts 214°
2026-04-30 14:51 53.88900 7.57306 28454 ft 480 kts 201°
2026-04-30 14:52 53.79589 7.51304 28457 ft 480 kts 205°
2026-04-30 14:52 53.71104 7.42234 28447 ft 482 kts 214°
2026-04-30 14:53 53.62889 7.32442 28448 ft 482 kts 213°
2026-04-30 14:54 53.51838 7.19816 28431 ft 482 kts 213°
2026-04-30 14:55 53.44214 7.08821 28357 ft 480 kts 224°
2026-04-30 14:55 53.39601 7.01100 27683 ft 456 kts 224°
2026-04-30 14:56 53.35256 6.93814 27217 ft 429 kts 223°
2026-04-30 14:56 53.31178 6.86993 26813 ft 405 kts 223°
2026-04-30 14:57 53.29210 6.83708 26630 ft 394 kts 223°
2026-04-30 14:57 53.25437 6.77421 26300 ft 372 kts 223°
2026-04-30 14:58 53.21865 6.71487 26010 ft 352 kts 223°
2026-04-30 14:58 53.20155 6.68651 25885 ft 342 kts 223°
2026-04-30 14:58 53.16869 6.63211 25612 ft 324 kts 222°
2026-04-30 14:59 53.13720 6.58012 25093 ft 315 kts 222°
2026-04-30 15:00 53.09085 6.50381 24144 ft 312 kts 221°
2026-04-30 15:00 53.05931 6.45208 22827 ft 329 kts 221°
2026-04-30 15:01 53.02601 6.39753 21508 ft 343 kts 221°
2026-04-30 15:01 53.00884 6.36943 20873 ft 349 kts 221°
2026-04-30 15:01 52.97474 6.31363 20408 ft 333 kts 221°
2026-04-30 15:02 52.95864 6.28731 20401 ft 317 kts 221°
2026-04-30 15:02 52.94331 6.26227 20396 ft 303 kts 220°
2026-04-30 15:03 52.90008 6.19204 20394 ft 289 kts 220°
2026-04-30 15:03 52.87133 6.14547 20395 ft 289 kts 220°
2026-04-30 15:04 52.84256 6.09895 20390 ft 289 kts 220°
2026-04-30 15:04 52.79961 6.02962 20388 ft 289 kts 220°
2026-04-30 15:05 52.75645 5.96014 20385 ft 289 kts 220°
2026-04-30 15:06 52.72769 5.91394 20262 ft 290 kts 220°
2026-04-30 15:06 52.69765 5.86592 18866 ft 316 kts 220°
2026-04-30 15:07 52.66353 5.81161 15962 ft 374 kts 220°
2026-04-30 15:07 52.62371 5.74813 12709 ft 418 kts 220°
2026-04-30 15:08 52.58274 5.68251 11861 ft 387 kts 220°
2026-04-30 15:08 52.53019 5.59882 11868 ft 321 kts 219°
2026-04-30 15:09 52.50224 5.54563 11637 ft 303 kts 242°
2026-04-30 15:09 52.48642 5.48549 11636 ft 271 kts 242°
2026-04-30 15:10 52.47197 5.43134 11395 ft 253 kts 240°
2026-04-30 15:11 52.44126 5.32246 9222 ft 290 kts 240°
2026-04-30 15:11 52.42358 5.26039 7794 ft 309 kts 240°
2026-04-30 15:12 52.40466 5.16389 7339 ft 278 kts 257°
2026-04-30 15:13 52.39941 5.10487 7335 ft 248 kts 257°
2026-04-30 15:14 52.39018 4.99499 7329 ft 245 kts 257°
2026-04-30 15:14 52.38325 4.91219 7323 ft 245 kts 257°
2026-04-30 15:16 52.37181 4.77515 7322 ft 243 kts 257°
2026-04-30 15:17 52.35600 4.66894 6977 ft 238 kts 247°
2026-04-30 15:18 52.32879 4.52575 4076 ft 282 kts 247°
2026-04-30 15:19 52.30943 4.43152 2121 ft 294 kts 247°